EW7082 Weather Reports


time (UTC)temp
C
wind
direction
speed
KPH
gust
KPH
rain 1hr
cm
rain 24hr
cm
rain mn
cm
humidity
%
barometer
mb
20260503230705 25 275 8.0 12.9 0.00 0.00 0.00 40 1011.7
20260503230204 25 294 3.2 12.9 0.00 0.00 0.00 41 1011.8
20260503225704 25 281 4.8 12.9 0.00 0.00 0.00 44 1011.9
20260503225204 25 335 6.4 12.9 0.00 0.00 0.00 41 1012.0
20260503224704 25 305 3.2 11.3 0.00 0.00 0.00 41 1012.0
20260503224206 25 285 4.8 12.9 0.00 0.00 0.00 40 1012.1
20260503223203 25 245 4.8 11.3 0.00 0.00 0.00 43 1012.3
20260503222705 25 257 3.2 9.7 0.00 0.00 0.00 42 1012.4
20260503222206 25 20 1.6 4.8 0.00 0.00 0.00 44 1012.5
20260503221205 24 347 6.4 11.3 0.00 0.00 0.00 42 1012.6
20260503220205 24 265 4.8 9.7 0.00 0.00 0.00 45 1012.8
20260503215703 23 46 4.8 8.0 0.00 0.00 0.00 46 1012.8
20260503215205 23 46 4.8 9.7 0.00 0.00 0.00 44 1012.9
20260503214703 23 323 3.2 11.3 0.00 0.00 0.00 52 1013.0
20260503214205 23 346 6.4 14.5 0.00 0.00 0.00 46 1013.1
20260503213706 23 299 6.4 12.9 0.00 0.00 0.00 47 1013.1
20260503213204 23 347 6.4 14.5 0.00 0.00 0.00 48 1013.1
20260503212706 23 27 4.8 11.3 0.00 0.00 0.00 49 1013.2
20260503212204 23 11 8.0 12.9 0.00 0.00 0.00 46 1013.2
20260503211704 23 357 6.4 19.3 0.00 0.00 0.00 46 1013.2
20260503211204 23 315 8.0 14.5 0.00 0.00 0.00 45 1013.3
20260503210704 23 305 9.7 16.1 0.00 0.00 0.00 46 1013.3
20260503205704 23 350 9.7 14.5 0.00 0.00 0.00 48 1013.4
20260503205205 23 329 9.7 16.1 0.00 0.00 0.00 48 1013.3
20260503204705 23 309 12.9 19.3 0.00 0.00 0.00 46 1013.4
20260503203705 23 304 8.0 16.1 0.00 0.00 0.00 46 1013.4
20260503203204 23 332 8.0 14.5 0.00 0.00 0.00 45 1013.4
20260503202204 23 14 4.8 11.3 0.00 0.00 0.00 48 1013.4
20260503201703 23 8 8.0 14.5 0.00 0.00 0.00 46 1013.4
20260503201205 23 18 4.8 12.9 0.00 0.00 0.00 48 1013.4
20260503200706 23 23 3.2 9.7 0.00 0.00 0.00 48 1013.5
20260503200204 23 343 6.4 12.9 0.00 0.00 0.00 49 1013.6
20260503195705 23 274 4.8 11.3 0.00 0.00 0.00 52 1013.8
20260503195204 23 340 3.2 9.7 0.00 0.00 0.00 51 1013.8
20260503194704 23 307 8.0 14.5 0.00 0.00 0.00 48 1013.8
20260503194204 23 9 4.8 16.1 0.00 0.00 0.00 49 1013.8
20260503193706 23 8 6.4 12.9 0.00 0.00 0.00 49 1013.9
20260503193203 23 295 3.2 4.8 0.00 0.00 0.00 49 1014.0
20260503192704 23 318 3.2 9.7 0.00 0.00 0.00 52 1014.1
20260503192204 23 349 4.8 12.9 0.00 0.00 0.00 51 1014.1
20260503191203 23 284 4.8 9.7 0.00 0.00 0.00 48 1014.2
20260503190705 23 223 3.2 8.0 0.00 0.00 0.00 47 1014.2
20260503190204 23 264 6.4 11.3 0.00 0.00 0.00 52 1014.3
20260503185205 22 313 4.8 11.3 0.00 0.00 0.00 48 1014.3
20260503184204 22 353 3.2 8.0 0.00 0.00 0.00 52 1014.6
20260503183705 22 358 3.2 12.9 0.00 0.00 0.00 50 1014.6
20260503183204 22 11 4.8 8.0 0.00 0.00 0.00 51 1014.6
20260503182704 22 318 6.4 12.9 0.00 0.00 0.00 52 1014.6
20260503182205 22 347 6.4 8.0 0.00 0.00 0.00 54 1014.7
20260503181705 22 332 3.2 12.9 0.00 0.00 0.00 53 1014.7
20260503181204 22 315 3.2 8.0 0.00 0.00 0.00 53 1014.8
20260503180705 22 332 4.8 12.9 0.00 0.00 0.00 53 1014.8
20260503180204 21 1 3.2 4.8 0.00 0.00 0.00 51 1014.9
20260503175704 21 303 4.8 8.0 0.00 0.00 0.00 51 1014.9
20260503175205 21 320 4.8 11.3 0.00 0.00 0.00 49 1015.0
20260503174206 21 337 8.0 12.9 0.00 0.00 0.00 54 1015.1
20260503173705 21 279 8.0 12.9 0.00 0.00 0.00 54 1015.1
20260503173204 21 344 6.4 12.9 0.00 0.00 0.00 54 1015.1
20260503172704 21 283 1.6 8.0 0.00 0.00 0.00 54 1015.2
20260503172205 21 274 4.8 11.3 0.00 0.00 0.00 56 1015.2
20260503171704 21 291 3.2 11.3 0.00 0.00 0.00 56 1015.2
20260503171203 21 280 8.0 12.9 0.00 0.00 0.00 56 1015.2
20260503170705 21 327 4.8 12.9 0.00 0.00 0.00 54 1015.2
20260503170203 21 316 3.2 11.3 0.00 0.00 0.00 55 1015.3
20260503160204 20 291 4.8 9.7 0.00 0.00 0.00 58 1015.5
20260503150704 18 247 6.4 11.3 0.00 0.00 0.00 63 1015.9
20260503140205 13 253 1.6 4.8 0.00 0.00 0.00 80 1015.6
20260503131205 11 248 1.6 4.8 0.00 0.00 0.00 80 1015.4
20260503130704 11 212 4.8 11.3 0.00 0.00 0.00 82 1015.4
20260503130204 10 209 4.8 12.9 0.00 0.00 0.00 82 1015.4
20260503120205 10 228 1.6 3.2 0.00 0.00 0.00 82 1015.5
20260503110705 11 252 0.0 1.6 0.00 0.00 0.00 76 1015.4
20260503110203 11 252 1.6 3.2 0.00 0.00 0.00 77 1015.4
20260503090205 14 240 6.4 9.7 0.00 0.00 0.00 70 1015.1
20260503081204 12 279 0.0 3.2 0.00 0.00 0.00 81 1015.1
20260503080204 12 279 1.6 3.2 0.00 0.00 0.00 81 1015.0
20260503072704 11 269 1.6 3.2 0.00 0.00 0.00 83 1014.9
20260503072205 11 269 1.6 3.2 0.00 0.00 0.00 82 1014.9
20260503071704 11 269 3.2 4.8 0.00 0.00 0.00 82 1014.9
20260503071204 11 269 1.6 4.8 0.00 0.00 0.00 83 1014.9
20260503070706 11 269 3.2 4.8 0.00 0.00 0.00 83 1014.9
20260503070205 12 269 3.2 4.8 0.00 0.00 0.00 83 1015.0
20260503060204 13 300 3.2 4.8 0.00 0.00 0.00 79 1014.9
20260503054705 13 284 3.2 4.8 0.00 0.00 0.00 78 1014.8
20260503054204 13 284 4.8 4.8 0.00 0.00 0.00 78 1014.9
20260503053705 13 284 1.6 4.8 0.00 0.00 0.00 76 1014.9
20260503053204 13 284 3.2 4.8 0.00 0.00 0.00 77 1014.9
20260503052705 13 284 3.2 4.8 0.00 0.00 0.00 77 1015.0
20260503052206 13 284 3.2 4.8 0.00 0.00 0.00 78 1015.0
20260503051704 13 284 3.2 4.8 0.00 0.00 0.00 78 1014.9
20260503051203 14 241 0.0 3.2 0.00 0.00 0.00 76 1015.0
20260503050706 14 241 3.2 4.8 0.00 0.00 0.00 76 1014.9
20260503050205 14 296 4.8 4.8 0.00 0.00 0.00 75 1014.9
20260503045705 15 249 3.2 4.8 0.00 0.00 0.00 74 1014.8
20260503044705 15 239 3.2 4.8 0.00 0.00 0.00 72 1014.8
20260503044204 15 210 3.2 4.8 0.00 0.00 0.00 72 1014.8
20260503043205 15 188 1.6 3.2 0.00 0.00 0.00 73 1014.7
20260503042704 15 188 0.0 3.2 0.00 0.00 0.00 74 1014.7
20260503042205 15 188 0.0 1.6 0.00 0.00 0.00 73 1014.6
20260503041704 16 188 0.0 1.6 0.00 0.00 0.00 72 1014.6
20260503041204 16 188 1.6 3.2 0.00 0.00 0.00 72 1014.6
20260503040704 16 188 0.0 1.6 0.00 0.00 0.00 72 1014.5
20260503040203 16 188 0.0 0.0 0.00 0.00 0.00 71 1014.5
20260503035704 16 188 0.0 0.0 0.00 0.00 0.00 70 1014.4
20260503035205 16 188 0.0 0.0 0.00 0.00 0.00 70 1014.3
20260503033705 17 173 0.0 3.2 0.00 0.00 0.00 66 1014.1
20260503033204 18 173 1.6 3.2 0.00 0.00 0.00 64 1014.1
20260503032704 18 173 0.0 1.6 0.00 0.00 0.00 62 1014.1
20260503031704 20 212 3.2 4.8 0.00 0.00 0.00 60 1014.1
20260503031205 21 212 1.6 4.8 0.00 0.00 0.00 58 1014.0
20260503030705 22 294 0.0 4.8 0.00 0.00 0.00 54 1014.1
20260503030204 23 303 0.0 0.0 0.00 0.00 0.00 52 1014.1
20260503025705 23 303 0.0 0.0 0.00 0.00 0.00 49 1014.0
20260503025205 23 303 0.0 0.0 0.00 0.00 0.00 53 1014.0
20260503024704 23 303 0.0 0.0 0.00 0.00 0.00 53 1014.0
20260503024205 24 303 0.0 0.0 0.00 0.00 0.00 50 1014.0
20260503023705 24 303 0.0 0.0 0.00 0.00 0.00 51 1014.0
20260503023206 23 303 0.0 1.6 0.00 0.00 0.00 49 1014.0
20260503022704 23 303 1.6 1.6 0.00 0.00 0.00 48 1014.0
20260503021704 23 303 1.6 3.2 0.00 0.00 0.00 46 1014.1
20260503021204 23 303 3.2 4.8 0.00 0.00 0.00 44 1014.1
20260503020705 24 303 1.6 3.2 0.00 0.00 0.00 44 1014.2
20260503020204 24 303 3.2 4.8 0.00 0.00 0.00 45 1014.2
20260503015705 24 342 3.2 4.8 0.00 0.00 0.00 45 1014.2
20260503015204 24 311 3.2 4.8 0.00 0.00 0.00 43 1014.2
20260503014704 24 298 3.2 4.8 0.00 0.00 0.00 46 1014.3
20260503014205 25 279 3.2 4.8 0.00 0.00 0.00 45 1014.3
20260503013704 25 319 3.2 4.8 0.00 0.00 0.00 42 1014.3
20260503013204 25 309 1.6 4.8 0.00 0.00 0.00 41 1014.4
20260503012205 25 334 1.6 4.8 0.00 0.00 0.00 41 1014.5
20260503011704 25 263 0.0 4.8 0.00 0.00 0.00 42 1014.5
20260503011205 25 304 1.6 4.8 0.00 0.00 0.00 40 1014.6
20260503010706 24 266 1.6 4.8 0.00 0.00 0.00 41 1014.5
20260503010204 24 293 4.8 9.7 0.00 0.00 0.00 40 1014.6
20260503005205 24 261 4.8 4.8 0.00 0.00 0.00 40 1014.6
20260503004703 25 268 4.8 4.8 0.00 0.00 0.00 39 1014.6
20260503004204 24 325 3.2 4.8 0.00 0.00 0.00 37 1014.6
20260503003704 24 294 3.2 4.8 0.00 0.00 0.00 37 1014.6
20260503003204 24 232 3.2 4.8 0.00 0.00 0.00 43 1014.6
20260503002704 24 309 1.6 4.8 0.00 0.00 0.00 43 1014.7
20260503002206 23 277 4.8 11.3 0.00 0.00 0.00 41 1014.7
20260503001704 23 325 4.8 11.3 0.00 0.00 0.00 41 1014.7
20260503001204 23 274 3.2 9.7 0.00 0.00 0.00 40 1014.8
20260503000705 23 341 4.8 8.0 0.00 0.00 0.00 39 1014.8
20260503000204 23 45 3.2 14.5 0.00 0.00 0.00 41 1014.8
20260502235704 23 4 6.4 12.9 0.00 0.00 0.00 43 1014.9
20260502235205 23 10 4.8 9.7 0.00 0.00 0.00 44 1014.9
20260502234704 23 324 4.8 11.3 0.00 0.00 0.00 45 1014.9
20260502233704 23 341 4.8 11.3 0.00 0.00 0.00 44 1015.1
20260502233203 23 315 4.8 9.7 0.00 0.00 0.00 44 1015.1
20260502232204 23 284 1.6 4.8 0.00 0.00 0.00 48 1015.2
20260502231704 23 261 4.8 9.7 0.00 0.00 0.00 48 1015.3
20260502231204 23 291 1.6 8.0 0.00 0.00 0.00 46 1015.3